• In Belarus
  • List of Countries
  • For 7 days
  • Water Temperature
  • Satellite Maps
  • Weather Map
  • Weather Widgets
  • user-avatar
    Login

    Hourly Weather Asfi

    Today, 18 October, Thursday

    Time Temperature Precipitation Wind Pressure Humidity
    00:00 +25°C° 0 mm 4 mps 735 mmHg 50%
    01:00 +25°C° 0 mm 2 mps 735 mmHg 53%
    02:00 +24°C° 0 mm 2 mps 735 mmHg 53%
    03:00 +24°C° 0 mm 2 mps 735 mmHg 53%
    04:00 +24°C° 0 mm 2 mps 734 mmHg 53%
    05:00 +24°C° 0 mm 2 mps 735 mmHg 53%
    06:00 +23°C° 0 mm 2 mps 735 mmHg 53%
    07:00 +22°C° 0 mm 3 mps 735 mmHg 52%
    08:00 +23°C° 0 mm 4 mps 735 mmHg 48%
    09:00 +25°C° 0 mm 5 mps 735 mmHg 44%
    10:00 +26°C° 0 mm 6 mps 735 mmHg 39%
    11:00 +27°C° 0 mm 7 mps 735 mmHg 37%
    12:00 +28°C° 0 mm 7 mps 735 mmHg 34%
    13:00 +28°C° 0 mm 7 mps 735 mmHg 31%
    14:00 +28°C° 0 mm 7 mps 735 mmHg 31%
    15:00 +28°C° 0 mm 7 mps 734 mmHg 31%
    16:00 +28°C° 0 mm 6 mps 734 mmHg 31%
    17:00 +28°C° 0 mm 5 mps 735 mmHg 32%
    18:00 +27°C° 0 mm 4 mps 735 mmHg 34%
    19:00 +27°C° 0 mm 3 mps 735 mmHg 35%
    20:00 +26°C° 0 mm 2 mps 736 mmHg 36%
    21:00 +26°C° 0 mm 2 mps 736 mmHg 38%
    22:00 +26°C° 0 mm 2 mps 737 mmHg 39%
    23:00 +25°C° 0 mm 2 mps 737 mmHg 41%

    Tomorrow, 19 October, Friday

    Time Temperature Precipitation Wind Pressure Humidity
    00:00 +25°C° 0 mm 1 mps 737 mmHg 42%
    01:00 +24°C° 0 mm 1 mps 737 mmHg 44%
    02:00 +24°C° 0 mm 1 mps 737 mmHg 45%
    03:00 +23°C° 0 mm 1 mps 737 mmHg 47%
    04:00 +21°C° 0 mm 0 mps 737 mmHg 49%
    05:00 +21°C° 0 mm 0 mps 737 mmHg 49%
    06:00 +20°C° 0 mm 0 mps 738 mmHg 50%
    07:00 +20°C° 0 mm 0 mps 738 mmHg 51%
    08:00 +22°C° 0 mm 0 mps 739 mmHg 46%
    09:00 +23°C° 0 mm 0 mps 739 mmHg 42%
    10:00 +24°C° 0 mm 0 mps 740 mmHg 38%
    11:00 +25°C° 0 mm 0 mps 740 mmHg 37%
    12:00 +28°C° 0 mm 1 mps 740 mmHg 35%
    13:00 +29°C° 0 mm 1 mps 740 mmHg 33%
    14:00 +29°C° 0 mm 1 mps 740 mmHg 33%
    15:00 +29°C° 0 mm 2 mps 740 mmHg 32%
    16:00 +30°C° 0 mm 2 mps 740 mmHg 31%
    17:00 +29°C° 0 mm 2 mps 740 mmHg 32%
    18:00 +28°C° 0 mm 3 mps 740 mmHg 34%
    19:00 +28°C° 0 mm 3 mps 741 mmHg 36%
    20:00 +27°C° 0 mm 3 mps 741 mmHg 38%
    21:00 +27°C° 0 mm 4 mps 742 mmHg 39%
    22:00 +26°C° 0 mm 4 mps 742 mmHg 41%
    23:00 +26°C° 0 mm 4 mps 742 mmHg 45%

    Day after tomorrow, 20 October, Saturday

    Time Temperature Precipitation Wind Pressure Humidity
    00:00 +25°C° 0 mm 4 mps 742 mmHg 48%
    01:00 +23°C° 0 mm 5 mps 742 mmHg 52%
    02:00 +23°C° 0 mm 4 mps 742 mmHg 55%
    03:00 +23°C° 0 mm 4 mps 742 mmHg 58%
    04:00 +22°C° 0 mm 4 mps 742 mmHg 62%
    05:00 +22°C° 0 mm 4 mps 742 mmHg 65%
    06:00 +22°C° 0 mm 4 mps 742 mmHg 68%
    07:00 +21°C° 0 mm 4 mps 743 mmHg 71%
    08:00 +22°C° 0 mm 4 mps 743 mmHg 66%
    09:00 +23°C° 0 mm 5 mps 744 mmHg 61%
    10:00 +25°C° 0 mm 5 mps 744 mmHg 56%
    11:00 +26°C° 0 mm 5 mps 744 mmHg 51%
    12:00 +28°C° 0 mm 5 mps 744 mmHg 45%
    13:00 +29°C° 0 mm 5 mps 744 mmHg 39%
    14:00 +29°C° 0 mm 4 mps 743 mmHg 38%
    15:00 +29°C° 0 mm 4 mps 743 mmHg 37%
    16:00 +29°C° 0 mm 4 mps 742 mmHg 36%
    17:00 +28°C° 0 mm 4 mps 743 mmHg 38%
    18:00 +28°C° 0 mm 4 mps 743 mmHg 40%
    19:00 +27°C° 0 mm 4 mps 743 mmHg 43%
    20:00 +27°C° 0 mm 4 mps 744 mmHg 45%
    21:00 +26°C° 0 mm 4 mps 744 mmHg 47%
    22:00 +26°C° 0 mm 4 mps 744 mmHg 49%
    23:00 +25°C° 0 mm 4 mps 744 mmHg 52%

    21 October, Sunday

    Time Temperature Precipitation Wind Pressure Humidity
    00:00 +25°C° 0 mm 5 mps 744 mmHg 56%
    01:00 +23°C° 0 mm 5 mps 744 mmHg 59%
    02:00 +23°C° 0 mm 4 mps 743 mmHg 59%
    03:00 +23°C° 0 mm 4 mps 743 mmHg 59%
    04:00 +24°C° 0 mm 3 mps 743 mmHg 60%
    05:00 +24°C° 0 mm 3 mps 743 mmHg 60%
    06:00 +24°C° 0 mm 3 mps 743 mmHg 60%
    07:00 +24°C° 0 mm 3 mps 743 mmHg 61%
    08:00 +25°C° 0 mm 3 mps 744 mmHg 57%
    09:00 +26°C° 0 mm 3 mps 744 mmHg 53%
    10:00 +27°C° 0 mm 3 mps 744 mmHg 49%
    11:00 +27°C° 0 mm 3 mps 744 mmHg 45%
    12:00 +28°C° 0 mm 2 mps 744 mmHg 41%
    13:00 +29°C° 0 mm 2 mps 743 mmHg 37%
    14:00 +30°C° 0 mm 2 mps 743 mmHg 35%
    15:00 +30°C° 0 mm 3 mps 743 mmHg 33%
    16:00 +30°C° 0 mm 3 mps 742 mmHg 31%
    17:00 +30°C° 0 mm 3 mps 743 mmHg 33%
    18:00 +29°C° 0 mm 3 mps 743 mmHg 34%
    19:00 +28°C° 0 mm 3 mps 743 mmHg 35%
    20:00 +28°C° 0 mm 3 mps 743 mmHg 38%
    21:00 +27°C° 0 mm 3 mps 743 mmHg 40%
    22:00 +26°C° 0 mm 3 mps 743 mmHg 42%
    23:00 +26°C° 0 mm 3 mps 743 mmHg 47%

    22 October, Monday

    Time Temperature Precipitation Wind Pressure Humidity
    00:00 +25°C° 0 mm 3 mps 743 mmHg 52%
    01:00 +25°C° 0 mm 3 mps 743 mmHg 56%
    02:00 +24°C° 0 mm 3 mps 743 mmHg 61%
    03:00 +24°C° 0 mm 3 mps 743 mmHg 65%
    04:00 +22°C° 0 mm 3 mps 743 mmHg 70%
    05:00 +22°C° 0 mm 3 mps 743 mmHg 72%
    06:00 +22°C° 0 mm 3 mps 743 mmHg 75%
    07:00 +22°C° 0 mm 3 mps 743 mmHg 77%
    08:00 +24°C° 0 mm 3 mps 743 mmHg 71%
    09:00 +25°C° 0 mm 3 mps 744 mmHg 65%
    10:00 +26°C° 0 mm 3 mps 744 mmHg 60%
    11:00 +27°C° 0 mm 3 mps 744 mmHg 54%
    12:00 +28°C° 0 mm 4 mps 743 mmHg 48%
    13:00 +29°C° 0 mm 4 mps 743 mmHg 42%
    14:00 +29°C° 0 mm 4 mps 743 mmHg 40%
    15:00 +29°C° 0 mm 4 mps 743 mmHg 38%
    16:00 +30°C° 0 mm 5 mps 742 mmHg 36%
    17:00 +29°C° 0 mm 4 mps 742 mmHg 38%
    18:00 +28°C° 0 mm 4 mps 743 mmHg 40%
    19:00 +28°C° 0 mm 4 mps 743 mmHg 42%
    20:00 +27°C° 0 mm 4 mps 743 mmHg 45%
    21:00 +26°C° 0 mm 4 mps 743 mmHg 49%
    22:00 +26°C° 0 mm 4 mps 743 mmHg 52%
    23:00 +25°C° 0 mm 3 mps 743 mmHg 55%

    23 October, Tuesday

    Time Temperature Precipitation Wind Pressure Humidity
    00:00 +25°C° 0 mm 3 mps 743 mmHg 59%
    01:00 +24°C° 0 mm 2 mps 743 mmHg 62%
    02:00 +24°C° 0 mm 2 mps 743 mmHg 64%
    03:00 +23°C° 0 mm 2 mps 743 mmHg 66%
    04:00 +23°C° 0 mm 1 mps 743 mmHg 68%
    05:00 +23°C° 0 mm 2 mps 743 mmHg 68%
    06:00 +23°C° 0 mm 2 mps 743 mmHg 69%
    07:00 +23°C° 0 mm 2 mps 743 mmHg 69%
    08:00 +23°C° 0 mm 2 mps 744 mmHg 66%
    09:00 +24°C° 0 mm 2 mps 744 mmHg 62%
    10:00 +25°C° 0 mm 3 mps 744 mmHg 58%
    11:00 +26°C° 0 mm 2 mps 744 mmHg 55%
    12:00 +26°C° 0 mm 1 mps 743 mmHg 52%
    13:00 +27°C° 0 mm 1 mps 743 mmHg 49%
    14:00 +27°C° 0 mm 1 mps 743 mmHg 47%
    15:00 +28°C° 0 mm 2 mps 742 mmHg 46%
    16:00 +28°C° 0 mm 2 mps 742 mmHg 44%
    17:00 +28°C° 0 mm 2 mps 742 mmHg 44%
    18:00 +27°C° 0 mm 2 mps 742 mmHg 45%
    19:00 +27°C° 0 mm 2 mps 742 mmHg 45%
    20:00 +27°C° 0 mm 2 mps 742 mmHg 45%
    21:00 +26°C° 0 mm 2 mps 742 mmHg 46%
    22:00 +26°C° 0 mm 2 mps 742 mmHg 46%
    23:00 +26°C° 0 mm 3 mps 742 mmHg 46%
    Show more